RH
9 10 9 9 10 10 9 9 9 9 9 9 9 9 9 9 9 9 8 8 8 8 8 7 6 5 5 5 4 4 4 3 3 3 3 3 3 2 3 2 3 2 1 2 2 2 2 1 2 1 1 2 1 1 1 1 2 1 1 2 1 2 2
9 10 9 9 10 9 9 9 9 10 10 10 9 9 8 8 9 8 8 8 8 8 8 7 6 5 5 5 4 4 4 3 3 3 3 3 2 2 3 2 3 2 2 2 2 2 2 1 2 1 1 2 1 1 2 1 2 1 1 2 1 2 2
9 10 10 10 9 9 9 9 10 10 10 10 9 8 8 8 8 8 8 8 8 8 8 7 6 6 5 5 4 4 4 3 3 3 3 3 3 3 3 2 3 2 2 2 2 2 2 1 2 1 1 2 1 1 1 1 2 1 1 2 1 2 2
10 10 10 10 9 9 9 10 11 11 11 10 9 8 8 8 8 8 7 8 8 8 8 7 6 6 5 5 5 4 4 3 3 3 3 3 2 3 3 3 3 2 2 2 2 2 2 1 2 1 1 1 1 1 1 1 2 1 1 2 1 2 2
11 11 10 10 9 9 10 10 11 12 12 11 10 9 8 7 7 7 7 7 8 8 8 7 6 6 6 5 5 4 4 4 3 3 3 3 3 3 3 3 3 2 2 2 2 2 2 2 1 1 1 1 1 1 1 1 1 2 1 2 2 1 2
12 12 11 11 10 10 11 11 11 13 12 10 10 9 7 7 7 7 7 7 8 8 7 7 6 6 6 5 5 4 4 4 3 4 3 3 3 3 3 4 3 2 2 2 2 2 2 2 1 2 1 1 2 1 1 2 1 2 2 1 2 1 1
13 13 12 12 11 11 11 12 12 13 12 10 10 9 7 7 6 7 7 7 8 8 7 7 6 6 6 5 5 4 4 4 4 4 4 3 3 3 3 4 3 2 2 2 2 2 2 2 1 2 2 1 2 1 1 2 1 1 2 1 2 2 1
13 13 13 12 12 12 12 12 12 13 13 11 10 8 7 6 6 7 7 7 8 8 7 7 6 6 6 5 4 4 4 4 4 4 4 3 3 3 3 4 3 2 2 2 2 2 1 2 1 1 2 1 2 2 1 2 1 1 2 1 2 2 1
13 13 13 13 13 13 13 13 13 13 13 11 10 9 7 6 6 7 7 8 8 7 7 7 6 6 6 5 4 4 4 4 4 4 5 4 3 3 3 4 3 2 2 1 2 2 1 2 2 1 2 1 1 2 1 1 1 1 2 1 2 2 1
13 13 12 13 14 13 13 13 13 13 13 11 10 9 7 6 6 7 7 8 8 7 6 6 6 7 6 5 4 4 3 4 4 4 5 4 4 4 4 4 3 2 2 1 2 2 1 2 2 1 1 1 1 1 1 1 1 1 1 1 1 2 2
13 12 12 13 14 13 13 14 13 13 13 12 10 9 7 7 6 7 8 8 7 6 6 6 6 6 6 5 4 4 3 4 4 4 5 4 3 4 5 5 4 2 2 2 2 2 2 1 2 1 1 1 1 1 1 1 1 1 1 2 1 2 2
13 12 11 11 13 13 13 14 13 13 14 12 10 9 7 6 6 7 8 8 7 7 6 6 6 6 6 5 4 4 4 4 4 4 5 4 3 4 4 4 4 2 2 2 2 2 2 1 2 1 1 1 1 1 1 1 1 1 1 1 1 1 2
13 13 12 11 12 12 13 14 13 13 13 11 9 9 7 6 7 7 8 8 7 7 6 7 7 6 6 5 5 5 4 4 4 4 4 4 3 4 5 4 3 2 2 2 2 2 2 1 2 1 1 1 1 1 1 1 1 1 1 1 1 1 2
12 12 12 12 12 13 13 13 12 12 11 9 8 8 7 6 7 7 8 8 7 7 7 7 7 6 6 5 5 5 5 5 4 4 4 4 3 4 4 4 3 2 2 2 2 2 2 1 2 1 1 1 1 1 1 1 1 1 1 1 1 1 1
12 12 12 12 13 13 13 13 11 11 10 9 8 8 6 6 7 8 8 8 7 7 7 7 7 6 6 6 5 6 6 5 5 4 4 3 3 4 4 4 3 2 2 2 2 2 2 2 2 1 1 1 1 1 1 1 1 1 1 1 1 1 2
12 12 13 13 13 14 13 13 11 11 10 8 8 8 6 6 7 8 8 8 7 7 8 8 7 6 6 6 6 7 7 6 5 5 4 3 4 4 4 4 3 2 2 2 2 2 2 2 2 1 1 1 1 1 1 1 1 1 1 1 1 1 1
12 12 14 14 14 14 13 12 11 10 9 8 7 7 7 6 7 8 8 8 7 8 8 8 7 7 6 6 6 8 8 7 6 5 4 4 4 5 5 4 3 2 2 2 2 2 2 2 2 1 1 1 1 1 1 1 1 1 1 1 1 1 1
11 12 13 14 14 14 13 12 10 9 9 8 7 7 7 7 8 8 8 7 7 8 8 8 7 7 7 6 7 9 10 8 6 5 4 4 4 5 6 4 3 2 2 2 2 2 2 2 2 2 1 1 1 1 1 1 1 1 1 1 1 1 1
11 12 12 13 13 13 12 11 9 8 8 8 7 7 7 7 8 8 7 7 8 8 8 8 8 7 7 7 9 11 11 9 7 6 5 4 5 5 6 5 4 2 2 2 2 2 2 2 2 2 1 1 1 1 1 1 1 1 2 1 1 1 1
11 12 12 12 13 12 11 10 8 8 8 8 7 7 7 7 8 7 7 7 8 8 8 8 8 8 7 8 10 12 11 9 7 6 5 5 6 6 6 6 4 3 2 2 2 2 2 2 2 2 1 1 2 1 1 1 1 1 1 1 1 1 1
11 12 12 12 12 11 10 9 7 8 8 7 7 7 7 7 8 7 7 7 7 8 8 8 8 8 7 9 12 13 11 8 7 6 5 6 6 6 6 6 5 3 2 2 2 2 2 2 2 2 2 1 1 1 1 1 1 1 1 1 1 1 1
11 12 12 12 12 10 9 8 7 7 8 7 7 7 7 7 7 7 7 7 8 8 8 8 8 7 7 10 13 13 11 8 7 6 5 6 7 6 6 6 5 3 2 2 3 2 2 2 2 2 2 1 1 1 1 1 1 1 1 1 1 1 1
11 12 12 12 11 10 8 8 7 7 7 7 7 8 7 7 7 7 7 7 8 8 8 8 8 7 8 11 14 13 10 8 7 6 6 6 7 7 6 6 5 4 3 2 3 3 2 2 2 2 2 1 1 2 1 1 1 1 1 1 1 1 1
11 12 12 11 11 9 8 7 7 7 6 7 7 8 7 7 7 7 7 8 8 8 8 8 8 7 9 13 15 13 10 9 8 7 6 6 7 7 6 6 5 4 3 3 3 3 2 2 2 2 2 2 2 2 2 1 1 1 1 1 2 1 1
11 11 11 10 9 8 7 6 6 6 6 7 8 8 7 7 7 7 7 8 8 8 8 8 8 8 11 15 16 13 10 9 8 7 7 7 7 6 6 6 5 4 3 3 3 3 2 2 2 2 2 2 2 1 2 2 1 2 2 1 2 2 1
10 10 9 9 8 6 6 6 6 6 6 7 7 8 7 7 7 7 7 8 8 8 8 8 8 9 13 17 16 13 11 10 9 8 8 7 6 6 5 6 6 5 4 3 3 3 3 2 2 2 2 2 2 2 2 2 1 2 2 1 1 2 1
8 8 7 7 6 5 5 6 6 6 6 7 7 7 7 6 7 7 8 8 8 8 8 8 8 10 15 18 16 13 12 11 10 9 9 8 6 6 5 6 6 5 4 3 3 3 3 2 2 2 2 2 2 2 2 2 2 2 2 2 1 1 1
7 6 6 6 5 5 5 6 6 6 6 7 7 7 7 6 7 7 8 8 8 8 8 8 8 12 17 19 16 14 13 12 11 10 10 8 7 6 6 6 7 6 5 4 3 3 3 3 2 2 2 2 2 2 2 2 2 2 2 2 2 1 1
5 5 5 5 5 5 6 5 5 6 6 7 7 7 6 7 7 7 8 8 8 8 9 8 9 15 20 20 18 17 15 13 12 11 10 9 7 7 6 6 7 8 6 4 3 3 3 3 2 2 2 2 2 2 2 2 2 2 2 2 2 2 1
4 4 4 5 5 5 6 5 5 6 6 7 7 6 6 7 7 8 8 8 8 9 9 8 11 18 22 22 20 19 17 15 14 13 12 10 8 7 7 6 6 8 7 6 4 3 3 3 3 2 2 2 2 2 2 2 2 2 2 2 2 2 2
4 4 4 5 5 5 5 5 6 6 6 6 6 6 6 7 7 8 8 8 8 9 8 9 15 21 24 23 23 22 19 17 16 15 13 10 8 7 7 7 7 7 7 6 4 3 3 3 3 3 2 2 2 2 2 2 3 2 2 2 2 2 2
4 5 5 5 5 5 5 5 6 6 6 6 6 6 6 7 7 8 8 8 9 9 9 12 19 24 26 26 26 25 21 19 17 16 13 10 8 7 7 7 7 7 7 6 5 3 3 3 3 3 3 2 2 2 2 2 3 3 3 3 2 2 2
4 5 5 5 5 5 5 5 6 5 5 6 6 6 6 7 7 8 8 8 9 9 10 16 23 27 28 29 30 28 24 20 18 16 13 10 8 7 7 7 7 7 7 7 6 4 3 3 3 3 3 3 2 2 2 2 2 3 3 3 3 2 2
4 4 4 5 5 5 5 5 5 5 5 6 6 6 6 7 7 8 8 9 9 10 14 22 28 30 31 33 33 29 25 21 19 16 13 10 8 8 8 7 7 8 7 7 6 5 4 3 3 3 3 3 3 2 2 2 2 3 3 3 3 3 3
4 4 4 5 5 5 5 5 5 5 6 6 6 6 6 7 7 8 9 9 9 12 19 27 31 32 34 36 35 30 25 22 20 17 13 9 8 8 8 8 8 8 8 8 7 6 5 3 3 3 3 3 3 3 2 2 2 2 3 3 3 3 3
4 4 5 5 5 5 5 5 5 5 5 6 6 6 7 7 8 8 9 9 11 17 25 30 32 34 37 38 35 30 25 22 20 17 12 9 8 8 8 9 9 9 9 8 8 7 5 4 3 3 3 3 3 3 3 3 3 2 2 3 3 3 3
Wind_Speed
69 70 70 68 66 65 64 63 62 61 61 62 62 63 63 63 62 61 60 59 59 59 59 60 60 59 57 55 54 53 53 53 52 51 48 46 46 43 40 39 38 39 39 36 39 45 41 34 35 40 43 45 48 51 54 57 62 66 72 77 84 90 95
67 67 67 66 64 62 61 59 59 59 60 61 61 61 61 61 61 60 59 58 58 58 58 59 58 57 56 54 53 52 52 52 51 50 48 45 44 43 40 38 37 37 38 36 37 42 44 38 35 39 43 45 48 51 54 57 62 66 71 77 83 90 95
66 65 65 63 62 60 58 57 56 58 59 61 61 61 60 60 60 59 58 57 57 57 57 58 57 56 56 54 53 52 51 52 51 49 48 45 41 41 40 38 36 35 36 36 36 40 44 41 36 38 43 45 48 51 54 57 62 66 71 76 82 89 95
65 64 63 61 60 58 56 55 55 57 59 61 61 61 61 60 59 58 57 56 56 56 56 57 56 55 55 54 53 52 51 51 50 49 47 45 40 39 39 38 36 35 34 35 36 38 42 43 39 37 42 45 47 51 54 57 62 66 70 75 81 88 94
63 63 61 60 58 58 56 55 54 56 58 60 60 61 61 60 59 57 56 55 55 55 55 55 55 54 54 53 52 51 50 49 49 48 46 43 40 37 37 37 36 35 33 34 35 37 39 42 41 38 40 44 46 50 54 57 61 66 70 74 79 86 93
62 61 60 59 58 57 57 55 54 55 58 59 59 60 61 60 59 56 55 54 54 55 55 54 53 53 52 52 51 50 49 48 47 46 44 42 39 37 36 37 37 35 32 32 34 36 38 40 41 39 39 43 46 49 53 57 61 65 70 74 78 84 91
61 60 59 58 57 57 57 56 55 56 59 59 59 60 61 60 58 56 54 53 53 54 54 53 52 51 51 51 50 49 48 47 45 44 43 41 39 36 35 35 36 35 31 30 32 35 37 39 41 40 39 41 45 48 52 57 60 64 69 74 78 82 89
60 59 58 57 57 57 58 57 56 56 59 60 59 60 61 59 57 55 53 52 53 54 54 52 50 50 50 50 49 48 47 45 43 42 41 40 38 36 35 35 36 34 30 28 30 33 35 37 40 41 39 40 44 47 51 56 60 63 68 73 77 81 86
59 59 57 56 56 57 57 57 57 57 59 60 59 60 60 59 56 54 53 52 53 54 53 52 49 48 49 49 48 47 46 44 41 39 39 40 38 37 37 37 36 35 32 28 28 32 34 35 38 41 39 39 43 46 50 54 59 62 66 72 76 80 84
60 59 57 55 56 57 57 58 58 58 59 60 59 59 59 58 55 54 51 51 52 53 52 51 49 47 48 48 47 47 45 43 40 37 37 37 36 35 37 39 38 36 33 29 28 31 33 33 36 39 40 39 41 45 48 52 57 61 65 70 75 79 83
60 60 57 55 56 57 57 58 59 58 59 60 59 58 58 56 54 52 50 50 52 52 52 51 48 46 47 47 47 46 45 42 39 36 35 35 33 32 34 37 38 37 34 31 28 29 31 32 33 36 39 39 39 42 46 50 55 59 63 68 73 77 81
60 60 59 57 57 57 57 58 59 58 58 60 59 58 57 54 51 50 49 49 51 52 51 50 47 45 46 46 46 46 45 43 39 36 35 34 32 31 32 34 36 36 35 32 28 27 29 30 30 33 37 38 38 40 43 48 52 57 61 66 71 75 79
60 60 60 59 58 57 57 58 59 57 58 58 57 56 55 52 49 48 47 49 50 51 50 49 47 45 45 45 45 45 45 43 40 36 34 32 30 30 31 33 32 33 34 34 29 25 25 27 28 30 34 37 37 38 41 45 50 54 59 64 69 73 77
60 59 60 60 59 59 58 59 59 57 57 57 55 54 53 49 46 45 46 47 49 49 49 48 46 44 44 44 44 45 45 43 40 37 33 30 29 28 30 31 31 29 30 32 29 24 22 24 26 28 31 35 37 36 39 43 47 51 56 61 66 71 75
60 60 59 59 60 60 59 59 59 58 58 56 54 52 50 47 44 43 45 46 47 47 47 46 45 43 42 43 43 43 44 43 41 38 34 30 28 28 29 30 30 28 27 28 28 25 22 22 24 26 29 33 35 36 37 40 45 49 53 58 63 67 72
60 59 59 59 60 59 59 60 59 58 57 56 53 51 49 45 42 42 44 45 45 45 45 44 43 42 41 41 42 42 43 43 42 40 36 31 28 29 30 29 28 27 26 25 26 25 22 22 23 25 27 30 33 34 35 38 43 46 50 55 60 64 70
59 58 58 59 59 59 59 60 59 58 57 55 53 50 47 43 41 41 43 44 44 43 43 42 41 40 40 40 41 42 42 43 42 40 36 31 29 30 31 30 27 26 26 25 25 25 23 23 23 24 25 28 31 33 34 36 40 45 48 52 56 61 66
58 57 57 57 58 58 59 59 59 57 56 54 52 49 46 42 40 41 43 43 42 42 41 40 39 39 39 39 40 41 41 42 42 40 36 32 30 30 32 31 28 26 25 25 25 25 24 23 23 24 24 26 29 31 33 35 38 43 47 50 54 58 63
57 56 56 56 57 58 59 59 57 55 54 53 50 47 44 40 39 41 42 41 41 40 39 38 37 37 38 38 39 40 41 41 41 39 36 33 32 31 32 32 30 27 24 23 24 25 25 24 23 23 23 24 27 30 32 34 37 41 45 49 52 56 61
56 55 55 55 56 57 59 58 56 53 52 51 48 45 42 39 39 40 40 39 40 39 38 37 36 36 36 37 38 39 39 40 40 38 35 33 33 33 32 31 30 28 25 23 22 24 24 24 23 23 22 23 26 29 31 33 36 39 43 47 50 54 59
54 53 53 54 55 57 58 57 55 51 50 48 45 42 40 38 38 40 39 38 38 38 36 35 35 35 35 36 36 38 38 39 38 36 33 32 33 33 31 31 30 28 25 23 22 22 23 23 22 22 21 22 25 28 30 32 35 38 41 45 49 52 57
52 52 52 53 55 57 57 56 52 49 47 45 42 40 39 38 38 39 38 37 37 37 35 35 34 34 34 35 35 36 37 38 37 34 31 31 32 31 30 30 29 28 25 23 21 22 22 21 21 21 20 21 23 27 29 31 34 36 40 44 47 51 57
51 51 52 53 54 56 56 54 50 47 44 42 40 39 38 37 37 38 37 36 36 36 34 34 33 33 33 33 34 35 36 37 36 33 31 31 31 31 30 28 27 26 24 22 21 21 21 20 20 19 19 19 22 26 28 31 32 34 38 42 47 51 55
50 50 51 52 54 55 54 51 47 44 41 39 38 37 37 36 36 37 36 35 35 35 33 33 32 32 33 33 33 34 35 36 35 32 31 32 32 31 29 27 25 24 23 21 20 20 19 18 18 18 17 18 21 24 27 29 31 33 36 41 46 50 53
49 50 52 53 54 54 52 48 44 41 38 37 36 36 36 36 36 35 35 34 34 34 33 32 31 31 32 32 33 34 34 34 33 32 31 33 33 30 27 26 25 24 22 21 19 18 18 17 16 16 16 16 19 23 26 28 30 31 35 40 45 49 53
50 51 53 53 53 52 49 45 42 38 35 35 35 35 35 35 34 34 34 34 33 33 32 31 31 30 31 32 33 34 34 33 33 31 32 33 33 29 25 25 25 24 23 21 20 18 17 15 14 14 15 15 17 21 25 27 29 30 34 39 45 49 52
51 52 53 52 51 49 46 43 39 35 33 33 33 33 34 34 32 33 33 33 32 31 31 30 30 30 30 31 33 34 34 33 32 31 32 34 34 30 26 25 24 24 23 21 20 18 17 15 14 13 13 14 15 19 23 26 27 29 33 38 44 48 51
52 52 51 50 48 46 43 40 36 33 31 32 32 32 32 32 31 31 31 31 31 30 29 29 29 29 29 31 33 33 34 33 32 32 33 35 35 32 28 25 25 24 23 22 20 18 17 15 14 12 12 13 14 17 21 25 27 29 32 37 43 47 50
51 49 47 45 44 42 40 37 33 31 30 30 31 31 31 30 30 30 30 30 29 28 28 27 27 28 29 30 32 33 34 34 33 32 34 35 35 33 29 26 25 25 24 23 21 18 17 16 14 12 11 12 13 16 19 23 26 28 31 36 42 46 49
46 44 42 41 40 38 36 34 31 29 29 30 30 30 29 29 29 28 28 28 28 27 26 26 26 26 28 29 31 32 33 34 33 33 35 36 35 32 30 27 25 24 23 23 21 18 17 15 14 13 11 11 12 14 18 22 25 28 31 35 40 45 48
41 39 38 37 36 35 33 31 29 28 28 28 28 28 27 27 27 27 27 27 26 25 25 25 25 26 27 29 30 31 32 33 33 34 35 36 34 31 29 28 26 24 23 21 20 18 16 15 14 13 12 11 12 13 16 20 24 27 30 34 39 43 46
36 35 34 33 32 32 30 28 27 27 27 26 25 25 26 26 26 26 26 25 24 23 23 23 23 25 26 28 29 31 32 33 33 34 35 35 33 30 28 27 26 25 23 21 19 17 16 14 13 13 12 11 11 13 15 19 23 26 29 32 37 41 45
31 30 30 30 29 28 27 26 26 26 25 24 23 24 24 23 24 24 24 23 22 22 22 22 22 24 26 27 29 30 32 32 33 34 35 35 32 29 27 26 26 25 24 22 20 18 16 15 14 13 12 12 11 12 14 17 21 25 29 32 35 39 43
27 27 27 26 25 25 25 25 24 23 22 22 22 22 21 21 22 22 22 21 21 21 20 21 22 23 25 27 28 30 31 32 33 34 35 34 31 28 27 26 26 25 24 23 21 20 17 15 14 13 13 12 12 12 14 16 20 24 28 31 34 37 41
24 24 24 23 22 22 22 22 21 20 20 21 21 20 20 19 20 20 20 19 19 19 19 20 21 23 25 26 28 30 31 32 33 35 35 34 31 28 27 27 26 26 25 24 22 20 18 16 14 13 13 13 12 12 13 15 18 22 26 30 33 35 39
20 21 20 19 19 20 19 19 19 19 19 20 19 18 18 18 18 18 18 17 17 18 18 19 21 23 24 26 28 29 31 32 33 35 35 33 30 28 28 27 27 26 26 25 23 20 18 16 15 13 13 13 13 13 13 15 17 20 24 28 31 34 37
Wind_Direction
288 288 290 291 292 294 296 298 299 298 298 299 299 300 300 302 304 306 307 308 308 307 306 305 304 305 306 308 309 310 309 308 307 307 306 305 303 300 299 297 294 290 286 281 276 275 274 265 254 248 243 238 234 230 226 222 219 216 213 211 209 208 207
289 290 291 292 294 296 298 298 298 299 299 300 300 301 303 304 305 306 307 308 308 307 306 305 305 306 307 309 309 310 309 308 307 308 308 306 304 301 300 298 295 291 287 281 275 273 272 267 255 248 243 238 234 230 226 223 220 217 214 211 209 208 207
290 291 292 293 295 297 298 298 299 300 300 300 301 303 305 306 306 307 308 308 308 307 306 305 306 307 309 310 310 310 310 309 309 309 308 306 304 302 300 299 296 293 287 281 275 271 270 268 257 247 243 238 234 231 227 223 221 218 215 212 210 209 208
291 291 292 294 295 297 298 299 299 300 300 301 303 305 306 306 307 307 308 309 308 308 307 307 308 309 310 310 310 310 310 309 309 309 308 306 304 302 301 299 298 294 288 281 275 270 267 266 260 248 242 239 234 231 228 224 221 219 216 213 210 209 209
290 290 292 294 296 297 298 299 299 299 300 302 304 305 305 306 307 308 309 309 309 309 308 308 309 309 310 310 310 310 310 309 309 309 308 306 305 304 302 301 299 295 288 280 275 269 265 264 260 251 242 238 234 231 229 225 221 220 218 215 211 210 210
288 290 292 293 295 296 297 298 299 299 300 302 303 304 305 306 307 308 309 309 310 310 308 308 309 309 309 309 309 309 309 309 310 310 309 308 306 305 304 303 300 295 288 280 275 270 265 262 259 252 243 238 235 231 229 226 222 219 218 216 213 210 210
287 289 290 292 294 295 296 298 299 299 300 302 303 304 305 306 307 308 310 311 311 310 308 309 309 309 309 308 308 309 309 310 311 312 310 309 307 306 305 303 299 295 288 280 274 269 265 262 258 253 244 239 235 231 229 227 224 220 218 217 215 212 210
285 287 288 290 292 293 295 297 298 298 299 301 303 304 304 305 307 309 311 312 311 309 309 309 310 309 308 307 308 308 309 311 313 313 312 310 308 307 306 304 301 296 290 282 275 269 264 260 258 254 246 239 236 232 229 227 225 221 218 217 216 213 211
284 285 286 289 290 292 294 296 297 297 298 300 302 302 304 306 309 310 312 313 311 309 309 309 309 309 307 307 308 308 309 311 314 316 315 313 311 311 309 307 303 299 293 285 277 270 263 258 256 255 249 240 235 232 229 227 225 222 219 217 217 215 212
282 284 285 287 288 290 292 293 294 296 297 299 301 302 304 307 310 311 312 312 309 308 308 308 309 309 307 307 308 308 309 313 315 318 317 313 311 313 312 309 305 299 294 288 278 270 263 256 253 254 252 243 235 233 229 226 225 223 219 217 217 216 213
282 283 285 286 286 288 290 291 292 294 296 298 301 303 304 308 310 311 312 311 308 308 308 308 308 309 308 307 308 309 311 314 317 320 318 312 311 313 311 308 304 299 294 289 279 269 263 257 250 251 252 247 238 233 230 227 225 223 220 217 217 216 214
281 283 285 285 285 287 288 288 290 293 295 297 301 303 305 308 310 311 311 309 307 308 308 307 308 309 308 309 310 311 312 314 318 321 318 314 312 313 310 306 303 299 294 288 280 268 263 258 250 248 250 249 242 234 230 228 225 223 220 218 216 216 215
280 282 284 285 286 286 287 288 290 292 294 298 301 303 305 309 311 310 310 308 307 307 307 306 308 309 309 310 311 311 313 315 318 321 319 315 313 313 311 306 301 297 292 289 282 270 263 259 252 247 247 247 244 237 231 228 225 222 220 219 217 215 215
278 280 282 284 285 286 287 288 290 293 295 299 302 304 306 309 310 310 308 306 306 307 306 306 308 309 309 310 311 312 313 315 318 321 319 315 314 314 311 306 301 295 291 290 286 277 267 262 254 248 246 245 243 238 231 228 226 223 220 219 217 215 214
277 279 281 282 284 286 287 289 292 294 297 301 304 304 306 309 310 309 306 305 306 306 305 306 307 309 310 311 312 313 314 316 319 321 319 317 317 317 314 309 303 297 291 290 289 285 277 269 260 251 247 245 243 238 232 227 225 223 220 218 217 215 213
276 278 279 281 282 285 287 290 292 295 298 302 304 306 308 310 309 307 305 304 305 305 304 305 307 309 311 312 312 313 315 317 319 321 320 320 322 321 316 311 307 302 296 292 291 289 283 275 266 257 250 246 243 239 232 226 223 222 221 218 216 215 213
274 275 277 279 281 284 286 289 292 295 299 302 305 306 308 309 308 306 304 304 305 304 304 305 308 310 312 312 313 314 316 318 319 321 321 323 325 324 318 313 311 306 301 297 293 291 287 279 270 262 254 248 244 239 233 225 221 221 220 218 215 214 212
272 273 274 277 280 282 285 288 291 295 298 302 305 307 309 309 307 304 303 304 305 304 304 307 309 311 313 313 313 315 317 318 320 321 322 325 327 326 320 317 315 310 304 301 297 294 289 282 273 265 257 250 245 240 233 225 220 218 219 217 214 213 212
270 271 273 275 277 280 283 287 291 295 298 301 304 308 308 307 304 302 302 304 304 304 305 308 311 312 313 312 314 316 317 319 320 321 323 327 329 327 323 319 317 313 306 301 298 295 291 284 275 267 259 251 245 240 233 226 219 216 217 217 214 212 211
268 270 271 273 275 278 282 286 291 295 298 301 304 307 306 303 301 300 302 304 304 304 306 310 312 312 312 312 313 315 317 318 320 321 325 330 331 327 323 320 318 314 309 303 298 294 290 284 276 268 261 253 245 240 234 227 220 215 215 216 214 211 209
267 269 270 272 274 277 282 286 291 294 297 300 304 306 304 300 299 300 302 304 304 304 308 310 311 311 311 311 313 315 317 318 320 321 327 332 331 326 323 322 320 315 311 307 301 295 289 283 276 269 261 253 245 239 234 227 221 215 213 214 213 210 208
266 267 269 271 274 277 282 286 291 294 296 300 304 304 301 299 299 301 303 304 304 305 308 310 310 309 309 311 313 315 317 318 320 322 328 333 332 326 323 323 321 317 314 310 304 298 290 284 276 269 261 252 245 239 234 227 221 216 212 212 212 210 208
264 266 268 271 274 277 282 287 291 293 296 300 303 302 299 298 299 301 303 303 303 305 308 309 309 308 309 310 313 315 317 319 320 323 329 335 334 328 323 322 322 320 317 313 307 299 291 284 277 270 261 251 243 238 233 227 221 217 213 211 211 211 209
262 265 267 270 273 277 283 288 291 293 297 299 300 298 297 298 299 301 302 302 302 304 307 307 307 308 308 311 314 316 317 319 321 325 331 336 335 329 322 321 323 323 320 315 308 300 292 285 278 271 262 251 242 237 232 226 221 217 214 212 211 211 210
261 263 266 269 273 279 284 289 291 293 296 297 297 295 295 296 299 300 300 301 302 305 307 307 307 307 309 311 314 316 318 320 322 327 333 336 334 327 323 324 326 327 324 318 311 304 295 287 279 273 264 252 242 236 232 226 220 217 215 213 212 212 211
260 263 266 270 275 281 286 289 291 292 294 293 293 293 293 295 298 299 299 300 303 305 306 306 306 307 309 312 314 316 318 321 324 329 333 335 332 329 328 330 331 330 327 322 316 309 301 292 283 274 266 254 242 235 231 226 220 217 216 214 212 211 211
260 264 268 272 278 284 288 289 290 290 290 290 290 291 292 295 297 298 299 300 302 304 305 305 306 307 310 312 314 317 319 322 325 330 334 334 332 331 332 334 334 333 330 325 319 313 307 299 288 278 268 256 242 234 230 226 220 217 216 214 213 212 211
262 267 271 275 280 286 288 288 287 288 288 288 288 289 291 295 296 297 298 300 302 303 304 304 306 308 310 312 315 318 320 323 327 332 335 335 332 331 333 336 337 336 333 328 322 316 310 303 294 282 269 257 244 233 229 224 219 216 215 214 213 212 211
266 271 275 279 283 286 286 286 285 285 285 285 286 289 292 294 296 297 297 299 301 303 303 304 306 309 311 314 317 319 321 324 328 333 336 335 332 330 332 335 337 338 335 331 325 318 311 305 297 286 272 259 245 233 227 223 218 215 215 215 213 212 211
271 276 280 282 284 285 284 284 284 283 283 284 287 291 294 294 295 297 297 299 301 302 303 304 306 309 312 315 318 319 322 325 329 333 334 333 330 329 330 333 336 338 337 332 326 319 311 305 298 289 277 261 248 235 227 222 217 213 213 215 214 212 211
277 281 282 283 283 283 283 283 282 281 281 285 290 293 293 293 295 296 297 299 302 302 303 305 307 310 314 317 318 320 323 326 329 332 332 330 329 329 330 332 334 337 337 333 327 320 312 305 299 291 280 265 250 236 227 222 218 213 211 214 215 212 211
280 281 281 281 280 281 282 282 281 281 284 288 291 291 291 293 295 296 297 300 302 302 303 306 309 312 316 318 319 321 323 326 328 330 330 329 328 329 330 331 332 334 335 335 331 324 317 308 301 293 283 269 252 239 228 222 218 214 210 212 214 214 212
279 279 278 278 279 280 281 281 281 284 288 291 290 289 290 293 295 296 298 301 302 303 304 306 310 314 318 319 321 322 324 326 328 329 328 327 328 329 330 331 332 334 336 336 334 329 321 312 303 294 285 273 257 242 230 222 218 215 211 209 212 214 213
276 275 276 277 278 280 280 282 285 289 291 290 288 288 291 293 294 295 299 301 302 303 305 308 313 317 320 321 322 323 324 326 327 328 327 326 327 330 332 332 333 335 336 337 335 331 324 315 305 295 287 277 263 247 235 224 219 216 212 209 210 213 213
275 274 275 278 279 280 283 286 289 290 289 287 288 290 291 292 294 296 298 300 301 303 306 310 315 319 322 323 323 324 325 326 327 326 326 326 328 331 333 333 334 335 336 336 335 331 325 317 306 296 287 278 268 254 241 229 220 217 214 210 208 210 213
276 276 278 280 281 283 285 287 287 286 285 286 288 290 292 293 295 297 298 299 300 303 307 312 317 321 323 324 323 324 325 326 326 325 324 325 328 332 333 334 335 335 335 335 334 331 326 318 308 298 288 279 271 260 247 235 225 218 215 213 209 208 210